This demonstration page uses our WeatherBlox Daily Observations layout. Learn more.

Left ArrowRight Arrow

Hourly Observations for August 23, 2018

Temp ( °F °C ) Dew Point ( °F °C ) Humidity (%) Winds ( mph kmh ) Pressure ( in mb ) Visibility ( mi km ) Precip ( " mm )
12:16 am 00:16 Clear 55 13 55 13 100 100 N N/A 30.15 1021 10 16 N/A
12:36 am 00:36 Clear 55 13 55 13 100 100 N N/A 30.15 1021 10 16 N/A
12:57 am 00:57 Clear 55 13 55 13 100 100 N N/A 30.15 1021 10 16 N/A
1:16 am 01:16 Clear 55 13 55 13 100 100 N N/A 30.15 1021 10 16 N/A
1:36 am 01:36 Clear 54 12 54 12 100 100 N N/A 30.18 1022 10 16 N/A
1:57 am 01:57 Clear 54 12 54 12 100 100 N N/A 30.18 1022 10 16 N/A
2:16 am 02:16 Partly Cloudy 54 12 54 12 100 100 N N/A 30.18 1022 10 16 N/A
2:36 am 02:36 Clear 55 13 55 13 100 100 N N/A 30.15 1021 10 16 N/A
2:57 am 02:57 Clear 54 12 54 12 100 100 N N/A 30.18 1022 10 16 N/A
3:16 am 03:16 Clear 52 11 52 11 100 100 N N/A 30.18 1022 10 16 N/A
3:37 am 03:37 Clear 54 12 54 12 100 100 N N/A 30.18 1022 10 16 N/A
3:56 am 03:56 Clear 52 11 52 11 100 100 N N/A 30.18 1022 10 16 N/A
4:16 am 04:16 Clear 52 11 52 11 100 100 N N/A 30.18 1022 10 16 N/A
4:37 am 04:37 Clear 52 11 52 11 100 100 N N/A 30.18 1022 10 16 N/A
4:56 am 04:56 Clear 52 11 52 11 100 100 N N/A 30.18 1022 10 16 N/A
5:16 am 05:16 Clear 52 11 52 11 100 100 N N/A 30.18 1022 7 11 N/A
5:37 am 05:37 Clear 52 11 52 11 100 100 N N/A 30.18 1022 7 11 N/A
5:56 am 05:56 Clear 52 11 52 11 100 100 N N/A 30.18 1022 5 8 N/A
6:17 am 06:17 Clear 52 11 52 11 100 100 N N/A 30.18 1022 2 3 N/A
6:37 am 06:37 Mostly Cloudy 52 11 52 11 100 100 N N/A 30.21 1023 1 2 N/A
6:56 am 06:56 Mostly Cloudy 50 10 50 10 100 100 N N/A 30.21 1023 1 2 N/A
7:17 am 07:17 Mostly Cloudy 50 10 50 10 100 100 N N/A 30.21 1023 1 2 N/A
7:36 am 07:36 Mostly Cloudy 50 10 50 10 100 100 N N/A 30.21 1023 2 3 N/A
7:57 am 07:57 Sunny 52 11 52 11 100 100 N N/A 30.21 1023 7 11 N/A
8:17 am 08:17 Sunny 54 12 54 12 100 100 N N/A 30.21 1023 10 16 N/A
8:36 am 08:36 Sunny 57 14 57 14 100 100 N N/A 30.18 1022 10 16 N/A
8:57 am 08:57 Sunny 59 15 59 15 100 100 N N/A 30.18 1022 10 16 N/A
9:16 am 09:16 Sunny 63 17 61 16 94 94 N N/A 30.18 1022 10 16 N/A
9:36 am 09:36 Sunny 66 19 61 16 83 83 N N/A 30.18 1022 10 16 N/A
9:57 am 09:57 Sunny 68 20 61 16 78 78 N N/A 30.18 1022 10 16 N/A
10:16 am 10:16 Sunny 68 20 61 16 78 78 N N/A 30.18 1022 10 16 N/A
10:37 am 10:37 Sunny 70 21 61 16 73 73 N N/A 30.18 1022 10 16 N/A
10:57 am 10:57 Sunny 72 22 59 15 65 65 N N/A 30.18 1022 10 16 N/A
11:16 am 11:16 Sunny 72 22 57 14 61 61 N N/A 30.18 1022 10 16 N/A
11:37 am 11:37 Sunny 73 23 57 14 57 57 N N/A 30.15 1021 10 16 N/A
11:57 am 11:57 Sunny 73 23 57 14 57 57 N N/A 30.15 1021 10 16 N/A
12:16 pm 12:16 Sunny 73 23 59 15 61 61 N N/A 30.15 1021 10 16 N/A
12:37 pm 12:37 Sunny 73 23 57 14 57 57 N N/A 30.15 1021 10 16 N/A
12:56 pm 12:56 Sunny 75 24 61 16 61 61 S 3 6 30.15 1021 10 16 N/A
1:17 pm 13:17 Sunny 75 24 55 13 50 50 ESE 5 7 30.15 1021 10 16 N/A
1:36 pm 13:36 Sunny 75 24 59 15 57 57 ESE 3 6 30.15 1021 10 16 N/A
1:56 pm 13:56 Sunny 75 24 59 15 57 57 SE 3 6 30.15 1021 10 16 N/A
2:17 pm 14:17 Sunny 75 24 59 15 57 57 SSE 5 7 30.15 1021 10 16 N/A
2:36 pm 14:36 Sunny 75 24 57 14 54 54 SSE 3 6 30.15 1021 10 16 N/A
2:57 pm 14:57 Sunny 77 25 57 14 51 51 N N/A 30.15 1021 10 16 N/A
3:16 pm 15:16 Sunny 77 25 59 15 54 54 S 3 6 30.15 1021 10 16 N/A
3:37 pm 15:37 Sunny 77 25 61 16 57 57 S 8 13 30.15 1021 10 16 N/A
3:57 pm 15:57 Sunny 77 25 61 16 57 57 SE 3 6 30.12 1020 7 11 N/A
4:16 pm 16:16 Partly Cloudy 77 25 61 16 57 57 S 5 7 30.12 1020 10 16 N/A
4:37 pm 16:37 Partly Cloudy 77 25 59 15 54 54 SW 3 6 30.12 1020 10 16 N/A
4:56 pm 16:56 Sunny 77 25 61 16 57 57 ESE 7 11 30.12 1020 10 16 N/A
5:16 pm 17:16 Sunny 77 25 59 15 54 54 N N/A 30.09 1019 10 16 N/A
5:37 pm 17:37 Sunny 77 25 61 16 57 57 ESE 5 7 30.09 1019 10 16 N/A
5:56 pm 17:56 Sunny 77 25 59 15 54 54 S 3 6 30.09 1019 10 16 N/A
6:16 pm 18:16 Sunny 75 24 61 16 61 61 ESE 6 9 30.09 1019 10 16 N/A
6:37 pm 18:37 Sunny 75 24 61 16 61 61 S 5 7 30.09 1019 10 16 N/A
6:56 pm 18:56 Sunny 73 23 61 16 65 65 SSE 3 6 30.09 1019 10 16 N/A
7:16 pm 19:16 Sunny 73 23 61 16 65 65 SSE 7 11 30.09 1019 10 16 N/A
7:37 pm 19:37 Sunny 72 22 63 17 73 73 SE 5 7 30.09 1019 10 16 N/A
7:56 pm 19:56 Sunny 70 21 63 17 78 78 SE 5 7 30.12 1020 10 16 N/A
8:16 pm 20:16 Sunny 68 20 63 17 83 83 SE 3 6 30.12 1020 10 16 N/A
8:37 pm 20:37 Clear 66 19 61 16 83 83 SE 3 6 30.12 1020 10 16 N/A
8:56 pm 20:56 Clear 64 18 61 16 88 88 SSE 5 7 30.12 1020 10 16 N/A
9:17 pm 21:17 Clear 64 18 59 15 83 83 SSE 5 7 30.12 1020 10 16 N/A
9:36 pm 21:36 Clear 64 18 59 15 83 83 SSE 5 7 30.15 1021 10 16 N/A
9:56 pm 21:56 Clear 64 18 59 15 83 83 SSE 5 7 30.15 1021 10 16 N/A
10:17 pm 22:17 Clear 63 17 59 15 88 88 SSE 5 7 30.15 1021 10 16 N/A
10:36 pm 22:36 Clear 63 17 59 15 88 88 N N/A 30.15 1021 10 16 N/A
10:56 pm 22:56 Clear 61 16 59 15 94 94 SSE 5 7 30.15 1021 10 16 N/A
11:17 pm 23:17 Clear 61 16 57 14 88 88 SSE 5 7 30.15 1021 10 16 N/A
11:37 pm 23:37 Clear 61 16 57 14 88 88 SSE 6 9 30.12 1020 10 16 N/A
11:56 pm 23:56 Clear 59 15 57 14 94 94 SSE 5 7 30.12 1020 10 16 N/A

Powered by AerisWeather